sat.trackr.live / text

‹ back to catalog

UNKNOWN

NORAD 87771

UNKNOWN UNKNOWN UNKNOWN

§ Identity

Operator
Country
Launch date
Launch site
Launch vehicle
Mass (kg)
RCS (m²)

External: N2YO · Heavens-Above

§ Orbital elements

Epoch: 2026-09-18T09:17:34.015200Z

Period
109.13 min
Inclination
100.7238°
Eccentricity
0.0120100
Mean motion
13.19586538 rev/d
Perigee alt
1,095.5 km
Apogee alt
1,277.1 km
Semi-major
7,564.4 km
B*
2.2522e-4
RAAN
108.4221°
Arg perigee
88.1118°
Mean anomaly
273.3745°
Rev number
57,197

§ Raw data

UNKNOWN1 87771U          26261.38719925  .00000047  00000+0  22522-3 0  99972 87771 100.7238 108.4221 0120100  88.1118 273.3745 13.19586538571971

JSON: /api/v1/satellites/87771 · /tle

For live sub-satellite position, see the globe view (requires WebGL).

§ Visibility from observer

Set your observer location to see the next 7 days of passes ≥ 10°. The values pass through the URL so the page stays shareable.

No JS? Fill the form by hand. The geolocation button needs JavaScript.